CGLT CYXE-CYYL

Flight info

Callsign CGLT
Flight time 1h 3m
Altitude 31000
Route ATURU DCT ROMDA
Aircraft CL60/M-SBDE1E2E3FGHIJ1J4J5J7M3RWXYZ/LB1V1D1

Departure

Time 2026-04-27 00:52
Airport Saskatoon John G. Diefenbaker International Airport (CYXE)

Arrival

Time 2026-04-27 01:55
Airport Lynn Lake Airport (CYYL)
Time Latitude Longitude Altitude Speed Heading
2026-04-27 00:23 52.17018 -106.68076 1643 ft 0 kts 281°
2026-04-27 00:50 52.17026 -106.68147 1643 ft 7 kts 281°
2026-04-27 00:50 52.17038 -106.68240 1643 ft 9 kts 281°
2026-04-27 00:51 52.17078 -106.68308 1643 ft 10 kts
2026-04-27 00:51 52.17165 -106.68279 1643 ft 15 kts 10°
2026-04-27 00:51 52.17276 -106.68244 1643 ft 17 kts 12°
2026-04-27 00:51 52.17386 -106.68216 1643 ft 10 kts 352°
2026-04-27 00:52 52.17431 -106.68282 1643 ft 9 kts 278°
2026-04-27 00:52 52.17481 -106.68695 1644 ft 81 kts 281°
2026-04-27 00:52 52.17646 -106.70062 1758 ft 153 kts 281°
2026-04-27 00:52 52.17861 -106.71858 2567 ft 173 kts 282°
2026-04-27 00:53 52.18111 -106.73885 3337 ft 204 kts 283°
2026-04-27 00:53 52.18396 -106.76257 4160 ft 223 kts 283°
2026-04-27 00:53 52.18695 -106.78769 4787 ft 234 kts 283°
2026-04-27 00:53 52.19003 -106.81370 4994 ft 234 kts 282°
2026-04-27 00:54 52.19310 -106.83967 5014 ft 233 kts 283°
2026-04-27 00:54 52.19634 -106.86699 5190 ft 263 kts 282°
2026-04-27 00:54 52.19977 -106.89602 6627 ft 270 kts 282°
2026-04-27 00:54 52.20320 -106.92496 8391 ft 266 kts 284°
2026-04-27 00:55 52.21048 -106.95177 9877 ft 265 kts 310°
2026-04-27 00:55 52.22488 -106.96925 11091 ft 274 kts 338°
2026-04-27 00:55 52.24419 -106.97315 12157 ft 291 kts
2026-04-27 00:55 52.26300 -106.96122 13354 ft 303 kts 28°
2026-04-27 00:56 52.28070 -106.94273 14517 ft 310 kts 30°
2026-04-27 00:56 52.29870 -106.92419 15681 ft 314 kts 28°
2026-04-27 00:56 52.31759 -106.90574 16786 ft 319 kts 27°
2026-04-27 00:56 52.33659 -106.88711 17809 ft 325 kts 27°
2026-04-27 00:57 52.35587 -106.86818 18800 ft 329 kts 27°
2026-04-27 00:57 52.37560 -106.84877 19725 ft 334 kts 27°
2026-04-27 00:57 52.39549 -106.82916 20662 ft 338 kts 27°
2026-04-27 00:57 52.41541 -106.80946 21611 ft 339 kts 27°
2026-04-27 00:58 52.43544 -106.78963 22455 ft 342 kts 27°
2026-04-27 00:58 52.45599 -106.76927 23223 ft 346 kts 27°
2026-04-27 00:58 52.47655 -106.74886 23961 ft 351 kts 26°
2026-04-27 00:58 52.49731 -106.72822 24694 ft 354 kts 26°
2026-04-27 00:59 52.51837 -106.70725 25311 ft 359 kts 27°
2026-04-27 00:59 52.53970 -106.68600 25828 ft 364 kts 27°
2026-04-27 00:59 52.56158 -106.66415 26325 ft 370 kts 27°
2026-04-27 00:59 52.58365 -106.64211 26761 ft 377 kts 27°
2026-04-27 01:00 52.60597 -106.61976 27197 ft 382 kts 27°
2026-04-27 01:00 52.62874 -106.59694 27614 ft 387 kts 27°
2026-04-27 01:00 52.65174 -106.57385 27981 ft 393 kts 28°
2026-04-27 01:00 52.67507 -106.55039 28404 ft 397 kts 28°
2026-04-27 01:01 52.69870 -106.52660 28813 ft 401 kts 28°
2026-04-27 01:01 52.72262 -106.50248 29199 ft 405 kts 28°
2026-04-27 01:01 52.74664 -106.47823 29568 ft 409 kts 28°
2026-04-27 01:01 52.77127 -106.45333 29923 ft 414 kts 28°
2026-04-27 01:02 52.79577 -106.42853 30267 ft 418 kts 28°
2026-04-27 01:02 52.82042 -106.40353 30578 ft 422 kts 28°
2026-04-27 01:02 52.84575 -106.37782 30886 ft 426 kts 28°
2026-04-27 01:02 52.87090 -106.35225 31016 ft 430 kts 28°
2026-04-27 01:03 52.89641 -106.32626 31033 ft 428 kts 30°
2026-04-27 01:03 52.94678 -106.27486 31039 ft 427 kts 30°
2026-04-27 01:04 52.98837 -106.23231 31044 ft 427 kts 30°
2026-04-27 01:04 53.03911 -106.18025 31038 ft 427 kts 30°
2026-04-27 01:05 53.08926 -106.12868 31039 ft 427 kts 30°
2026-04-27 01:05 53.13981 -106.07653 31042 ft 427 kts 30°
2026-04-27 01:06 53.19009 -106.02451 31032 ft 425 kts 30°
2026-04-27 01:06 53.24026 -105.97248 31034 ft 426 kts 30°
2026-04-27 01:07 53.29104 -105.91967 31044 ft 425 kts 30°
2026-04-27 01:07 53.34100 -105.86755 31026 ft 425 kts 30°
2026-04-27 01:08 53.39103 -105.81522 31031 ft 425 kts 30°
2026-04-27 01:08 53.44126 -105.76253 31016 ft 426 kts 30°
2026-04-27 01:09 53.49119 -105.71001 31018 ft 424 kts 30°
2026-04-27 01:09 53.54121 -105.65725 30995 ft 424 kts 30°
2026-04-27 01:10 53.59119 -105.60437 31012 ft 425 kts 30°
2026-04-27 01:10 53.64099 -105.55154 30988 ft 425 kts 30°
2026-04-27 01:11 53.69073 -105.49862 30985 ft 424 kts 30°
2026-04-27 01:11 53.74057 -105.44546 30978 ft 424 kts 30°
2026-04-27 01:12 53.79013 -105.39243 30994 ft 424 kts 30°
2026-04-27 01:12 53.83986 -105.33907 30984 ft 423 kts 31°
2026-04-27 01:13 53.88947 -105.28568 30981 ft 423 kts 31°
2026-04-27 01:13 53.93903 -105.23221 30982 ft 425 kts 31°
2026-04-27 01:14 53.98888 -105.17825 30973 ft 424 kts 31°
2026-04-27 01:14 54.03834 -105.12457 30980 ft 424 kts 31°
2026-04-27 01:15 54.08795 -105.07057 30980 ft 423 kts 31°
2026-04-27 01:15 54.13744 -105.01656 30974 ft 424 kts 31°
2026-04-27 01:16 54.18706 -104.96222 30971 ft 424 kts 31°
2026-04-27 01:16 54.23660 -104.90782 30971 ft 424 kts 31°
2026-04-27 01:17 54.28606 -104.85335 30966 ft 423 kts 31°
2026-04-27 01:17 54.33542 -104.79884 30973 ft 424 kts 31°
2026-04-27 01:18 54.38535 -104.74354 30971 ft 423 kts 31°
2026-04-27 01:18 54.43456 -104.68886 30965 ft 422 kts 31°
2026-04-27 01:19 54.48385 -104.63394 30968 ft 423 kts 31°
2026-04-27 01:19 54.53320 -104.57879 30971 ft 422 kts 31°
2026-04-27 01:20 54.58212 -104.52397 30970 ft 422 kts 31°
2026-04-27 01:20 54.63133 -104.46865 30956 ft 422 kts 31°
2026-04-27 01:21 54.68028 -104.41347 30960 ft 422 kts 31°
2026-04-27 01:21 54.72938 -104.35795 30942 ft 422 kts 31°
2026-04-27 01:22 54.77816 -104.30263 30941 ft 422 kts 32°
2026-04-27 01:22 54.82693 -104.24716 30951 ft 421 kts 32°
2026-04-27 01:23 54.87598 -104.19121 30974 ft 421 kts 32°
2026-04-27 01:23 54.92469 -104.13547 30991 ft 422 kts 32°
2026-04-27 01:24 54.97365 -104.07929 30990 ft 421 kts 33°
2026-04-27 01:24 55.02256 -104.02300 30993 ft 422 kts 33°
2026-04-27 01:25 55.07099 -103.96709 30982 ft 421 kts 32°
2026-04-27 01:25 55.11962 -103.91077 30977 ft 421 kts 32°
2026-04-27 01:26 55.16839 -103.85414 30980 ft 420 kts 32°
2026-04-27 01:26 55.21695 -103.79758 30975 ft 420 kts 32°
2026-04-27 01:27 55.26534 -103.74103 30980 ft 422 kts 32°
2026-04-27 01:27 55.31406 -103.68394 30976 ft 422 kts 32°
2026-04-27 01:28 55.36271 -103.62675 30979 ft 421 kts 32°
2026-04-27 01:28 55.41122 -103.56955 30970 ft 420 kts 32°
2026-04-27 01:29 55.45967 -103.51226 30979 ft 421 kts 33°
2026-04-27 01:29 55.50788 -103.45508 30968 ft 420 kts 33°
2026-04-27 01:30 55.55632 -103.39745 30961 ft 420 kts 32°
2026-04-27 01:30 55.60429 -103.34020 30851 ft 424 kts 33°
2026-04-27 01:30 55.62891 -103.31076 30432 ft 424 kts 33°
2026-04-27 01:31 55.65291 -103.28200 30150 ft 419 kts 33°
2026-04-27 01:31 55.67700 -103.25310 29925 ft 417 kts 33°
2026-04-27 01:31 55.70095 -103.22432 29737 ft 417 kts 33°
2026-04-27 01:31 55.72486 -103.19555 29535 ft 416 kts 33°
2026-04-27 01:32 55.74857 -103.16698 29357 ft 416 kts 33°
2026-04-27 01:32 55.77247 -103.13812 29161 ft 415 kts 33°
2026-04-27 01:32 55.79610 -103.10956 28913 ft 416 kts 33°
2026-04-27 01:32 55.82001 -103.08061 28458 ft 416 kts 33°
2026-04-27 01:33 55.84365 -103.05195 27987 ft 413 kts 33°
2026-04-27 01:33 55.86721 -103.02333 27478 ft 409 kts 33°
2026-04-27 01:33 55.89011 -102.99547 26876 ft 398 kts 33°
2026-04-27 01:33 55.91267 -102.96798 26285 ft 387 kts 33°
2026-04-27 01:34 55.93420 -102.94170 25730 ft 377 kts 33°
2026-04-27 01:34 55.95561 -102.91554 25250 ft 371 kts 33°
2026-04-27 01:34 55.97660 -102.88986 24702 ft 370 kts 33°
2026-04-27 01:34 55.99777 -102.86394 24226 ft 364 kts 33°
2026-04-27 01:35 56.01859 -102.83840 23744 ft 362 kts 33°
2026-04-27 01:35 56.03894 -102.81340 23278 ft 359 kts 33°
2026-04-27 01:35 56.05936 -102.78828 22803 ft 356 kts 33°
2026-04-27 01:35 56.07977 -102.76314 22335 ft 353 kts 34°
2026-04-27 01:36 56.09988 -102.73835 21864 ft 350 kts 34°
2026-04-27 01:36 56.11971 -102.71386 21406 ft 347 kts 34°
2026-04-27 01:36 56.13948 -102.68941 20945 ft 344 kts 34°
2026-04-27 01:36 56.15877 -102.66554 20498 ft 341 kts 34°
2026-04-27 01:37 56.17823 -102.64142 20045 ft 339 kts 34°
2026-04-27 01:37 56.19758 -102.61741 19594 ft 336 kts 34°
2026-04-27 01:37 56.21653 -102.59387 19151 ft 335 kts 34°
2026-04-27 01:37 56.23582 -102.56987 18701 ft 332 kts 34°
2026-04-27 01:38 56.25472 -102.54632 18258 ft 331 kts 34°
2026-04-27 01:38 56.27348 -102.52293 17829 ft 328 kts 34°
2026-04-27 01:38 56.29206 -102.49974 17400 ft 327 kts 34°
2026-04-27 01:38 56.31060 -102.47656 16969 ft 325 kts 34°
2026-04-27 01:39 56.32898 -102.45350 16541 ft 323 kts 35°
2026-04-27 01:39 56.34497 -102.42574 16107 ft 322 kts 52°
2026-04-27 01:39 56.35603 -102.39117 15654 ft 321 kts 60°
2026-04-27 01:39 56.36647 -102.35568 15225 ft 314 kts 59°
2026-04-27 01:40 56.37646 -102.32182 14824 ft 308 kts 60°
2026-04-27 01:40 56.38648 -102.28778 14420 ft 306 kts 60°
2026-04-27 01:40 56.39641 -102.25394 14015 ft 305 kts 60°
2026-04-27 01:40 56.40621 -102.22050 13614 ft 305 kts 60°
2026-04-27 01:41 56.41607 -102.18675 13215 ft 303 kts 60°
2026-04-27 01:41 56.42579 -102.15339 12808 ft 302 kts 60°
2026-04-27 01:41 56.43558 -102.11975 12414 ft 301 kts 60°
2026-04-27 01:41 56.44518 -102.08667 12021 ft 300 kts 60°
2026-04-27 01:42 56.45490 -102.05311 11618 ft 300 kts 60°
2026-04-27 01:42 56.46432 -102.02050 11232 ft 293 kts 60°
2026-04-27 01:42 56.47368 -101.98806 10844 ft 287 kts 60°
2026-04-27 01:42 56.48282 -101.95628 10467 ft 282 kts 60°
2026-04-27 01:43 56.49175 -101.92523 10097 ft 277 kts 60°
2026-04-27 01:43 56.50049 -101.89477 9734 ft 273 kts 60°
2026-04-27 01:43 56.50926 -101.86420 9370 ft 269 kts 60°
2026-04-27 01:43 56.51783 -101.83433 9012 ft 269 kts 61°
2026-04-27 01:44 56.52641 -101.80428 8660 ft 271 kts 60°
2026-04-27 01:44 56.53503 -101.77407 8297 ft 270 kts 61°
2026-04-27 01:44 56.54356 -101.74414 7953 ft 269 kts 61°
2026-04-27 01:44 56.55207 -101.71417 7581 ft 269 kts 61°
2026-04-27 01:45 56.56060 -101.68411 7245 ft 267 kts 61°
2026-04-27 01:45 56.56909 -101.65426 6873 ft 267 kts 60°
2026-04-27 01:45 56.57756 -101.62436 6523 ft 266 kts 61°
2026-04-27 01:45 56.58591 -101.59487 6175 ft 265 kts 61°
2026-04-27 01:46 56.59427 -101.56529 5856 ft 262 kts 60°
2026-04-27 01:46 56.60251 -101.53610 5555 ft 260 kts 60°
2026-04-27 01:46 56.61062 -101.50730 5262 ft 253 kts 60°
2026-04-27 01:46 56.61847 -101.47936 4973 ft 245 kts 60°
2026-04-27 01:47 56.62601 -101.45252 4676 ft 239 kts 60°
2026-04-27 01:47 56.63350 -101.42582 4372 ft 234 kts 60°
2026-04-27 01:47 56.64079 -101.39977 4077 ft 227 kts 60°
2026-04-27 01:47 56.64787 -101.37452 3775 ft 224 kts 60°
2026-04-27 01:48 56.65487 -101.34947 3469 ft 220 kts 60°
2026-04-27 01:48 56.66169 -101.32503 3174 ft 217 kts 61°
2026-04-27 01:48 56.66840 -101.30099 2880 ft 214 kts 61°
2026-04-27 01:48 56.67511 -101.27689 2599 ft 210 kts 61°
2026-04-27 01:49 56.68156 -101.25373 2558 ft 206 kts 61°
2026-04-27 01:49 56.68793 -101.23047 2558 ft 209 kts 65°
2026-04-27 01:49 56.69059 -101.20513 2576 ft 196 kts 87°
2026-04-27 01:49 56.69061 -101.18162 2598 ft 175 kts 88°
2026-04-27 01:50 56.69071 -101.15984 2574 ft 174 kts 87°
2026-04-27 01:50 56.69081 -101.13789 2560 ft 171 kts 87°
2026-04-27 01:50 56.69089 -101.11648 2527 ft 170 kts 87°
2026-04-27 01:50 56.69133 -101.09475 2545 ft 170 kts 77°
2026-04-27 01:51 56.69680 -101.07664 2544 ft 166 kts 39°
2026-04-27 01:51 56.70730 -101.06899 2566 ft 165 kts
2026-04-27 01:51 56.71875 -101.06894 2581 ft 165 kts 358°
2026-04-27 01:51 56.73009 -101.06927 2577 ft 154 kts 359°
2026-04-27 01:52 56.74040 -101.06936 2583 ft 144 kts 359°
2026-04-27 01:52 56.75024 -101.06943 2568 ft 138 kts 359°
2026-04-27 01:52 56.75969 -101.06950 2565 ft 137 kts 359°
2026-04-27 01:52 56.76916 -101.06956 2596 ft 131 kts 359°
2026-04-27 01:53 56.77846 -101.06963 2625 ft 136 kts 359°
2026-04-27 01:53 56.78796 -101.06969 2584 ft 135 kts 359°
2026-04-27 01:53 56.79739 -101.06976 2415 ft 137 kts 360°
2026-04-27 01:53 56.80651 -101.06982 2259 ft 127 kts 360°
2026-04-27 01:54 56.81534 -101.06988 2054 ft 126 kts 360°
2026-04-27 01:54 56.82395 -101.06993 1902 ft 124 kts 360°
2026-04-27 01:54 56.83261 -101.06999 1712 ft 124 kts 360°
2026-04-27 01:54 56.84112 -101.07004 1556 ft 124 kts 360°
2026-04-27 01:55 56.84976 -101.07011 1370 ft 123 kts 360°
2026-04-27 01:55 56.85823 -101.07019 1176 ft 118 kts
2026-04-27 01:55 56.86514 -101.07021 1159 ft 71 kts 359°
2026-04-27 01:55 56.86713 -101.07013 1158 ft 7 kts
2026-04-27 01:56 56.86549 -101.07024 1158 ft 18 kts 180°
2026-04-27 01:56 56.86391 -101.07024 1158 ft 26 kts 180°
2026-04-27 01:56 56.86182 -101.07021 1158 ft 32 kts 179°
2026-04-27 01:57 56.86005 -101.07018 1158 ft 22 kts 179°
2026-04-27 01:57 56.85938 -101.06952 1157 ft 13 kts 101°
2026-04-27 01:57 56.85939 -101.06809 1155 ft 10 kts 89°
2026-04-27 01:57 56.85956 -101.06726 1155 ft 4 kts 16°
2026-04-27 01:58 56.85973 -101.06726 1155 ft 0 kts 358°